�������l�o���
Date,Time,MP-1(��Sv/h),MP-2(��Sv/h),MP-3(��Sv/h),MP-4(��Sv/h),MP-5(��Sv/h),MP-6(��Sv/h),MP-7(��Sv/h),MP-8(��Sv/h),����,����(m/s),���J
2017/11/21,00:00,0.932,1.506,0.959,1.790,1.229,0.503,0.914,0.858,�쐼,3.2,��
2017/11/21,00:10,0.931,1.508,0.958,1.787,1.229,0.504,0.912,0.856,��쐼,2.3,��
2017/11/21,00:20,0.932,1.504,0.957,1.785,1.229,0.503,0.914,0.857,�쐼,2.2,��
2017/11/21,00:30,0.931,1.507,0.954,1.787,1.227,0.504,0.914,0.857,��쐼,3.2,��
2017/11/21,00:40,0.930,1.507,0.955,1.786,1.228,0.502,0.912,0.857,��,2.6,��
2017/11/21,00:50,0.929,1.508,0.955,1.788,1.229,0.502,0.912,0.856,�k�k��,5.6,��
2017/11/21,01:00,0.930,1.505,0.958,1.791,1.229,0.503,0.912,0.856,�k��,7.8,��
2017/11/21,01:10,0.930,1.505,0.957,1.789,1.227,0.502,0.913,0.856,���k��,8.1,��
2017/11/21,01:20,0.931,1.505,0.957,1.788,1.230,0.502,0.913,0.857,���k��,8.8,��
2017/11/21,01:30,0.934,1.504,0.957,1.790,1.229,0.503,0.912,0.858,���k��,10.3,��
2017/11/21,01:40,0.931,1.505,0.956,1.790,1.228,0.502,0.913,0.855,���k��,9.6,��
2017/11/21,01:50,0.929,1.507,0.958,1.785,1.227,0.502,0.913,0.856,���k��,9.4,��
2017/11/21,02:00,0.932,1.505,0.956,1.787,1.227,0.502,0.914,0.857,�k��,7.8,��
2017/11/21,02:10,0.930,1.507,0.957,1.789,1.226,0.501,0.912,0.857,�k��,9.9,��
2017/11/21,02:20,0.931,1.504,0.957,1.789,1.229,0.501,0.912,0.856,�k��,10.2,��
2017/11/21,02:30,0.931,1.503,0.956,1.791,1.228,0.501,0.914,0.857,�k��,8.4,��
2017/11/21,02:40,0.931,1.505,0.956,1.791,1.227,0.503,0.915,0.856,�k�k��,6.2,��
2017/11/21,02:50,0.931,1.507,0.956,1.788,1.227,0.501,0.915,0.857,�k�k��,6.9,��
2017/11/21,03:00,0.928,1.508,0.955,1.787,1.227,0.501,0.913,0.857,�k��,6.4,��
2017/11/21,03:10,0.930,1.504,0.956,1.787,1.227,0.501,0.914,0.856,�k��,7.1,��
2017/11/21,03:20,0.929,1.506,0.955,1.785,1.227,0.501,0.913,0.856,�k��,8.9,��
2017/11/21,03:30,0.930,1.506,0.954,1.789,1.229,0.501,0.913,0.854,�k��,11.0,��
2017/11/21,03:40,0.929,1.504,0.956,1.788,1.229,0.500,0.913,0.857,�k��,11.3,��
2017/11/21,03:50,0.930,1.507,0.954,1.786,1.229,0.504,0.913,0.856,�k��,10.0,��
2017/11/21,04:00,0.927,1.506,0.954,1.790,1.226,0.501,0.913,0.857,�k��,11.1,��
2017/11/21,04:10,0.928,1.502,0.955,1.789,1.231,0.501,0.913,0.857,�k��,9.0,��
2017/11/21,04:20,0.929,1.507,0.957,1.788,1.225,0.502,0.913,0.855,�k��,9.7,��
2017/11/21,04:30,0.927,1.505,0.955,1.790,1.227,0.501,0.915,0.856,�k��,9.1,��
2017/11/21,04:40,0.930,1.503,0.954,1.789,1.227,0.501,0.913,0.856,�k��,8.0,��
2017/11/21,04:50,0.929,1.506,0.956,1.791,1.228,0.502,0.914,0.857,�k��,8.4,��
2017/11/21,05:00,0.928,1.504,0.957,1.791,1.228,0.502,0.912,0.856,�k��,8.5,��
2017/11/21,05:10,0.928,1.505,0.957,1.788,1.225,0.502,0.915,0.855,�k��,7.1,��
2017/11/21,05:20,0.929,1.507,0.954,1.789,1.227,0.500,0.912,0.856,�k��,6.3,��
2017/11/21,05:30,0.928,1.504,0.954,1.787,1.225,0.501,0.912,0.856,�k��,5.7,��
2017/11/21,05:40,0.928,1.505,0.954,1.784,1.224,0.501,0.912,0.857,�k��,6.8,��
2017/11/21,05:50,0.927,1.503,0.954,1.787,1.225,0.499,0.911,0.856,�k��,5.9,��
2017/11/21,06:00,0.926,1.503,0.952,1.788,1.226,0.501,0.912,0.855,���k��,6.4,��
2017/11/21,06:10,0.928,1.504,0.954,1.787,1.226,0.500,0.910,0.856,���k��,7.3,��
2017/11/21,06:20,0.928,1.503,0.955,1.785,1.225,0.499,0.911,0.855,���k��,9.6,��
2017/11/21,06:30,0.927,1.505,0.953,1.788,1.228,0.499,0.911,0.855,�k��,8.4,��
2017/11/21,06:40,0.925,1.506,0.956,1.787,1.226,0.501,0.911,0.855,�k��,7.0,��
2017/11/21,06:50,0.925,1.506,0.956,1.790,1.225,0.500,0.911,0.856,�k��,8.1,��
2017/11/21,07:00,0.926,1.506,0.954,1.789,1.226,0.501,0.911,0.856,�k��,8.1,��
2017/11/21,07:10,0.928,1.504,0.953,1.789,1.226,0.501,0.912,0.855,�k��,8.4,��
2017/11/21,07:20,0.928,1.504,0.953,1.789,1.223,0.500,0.911,0.857,�k��,9.6,��
2017/11/21,07:30,0.927,1.506,0.957,1.791,1.225,0.499,0.912,0.856,�k��,7.0,��
2017/11/21,07:40,0.927,1.506,0.955,1.792,1.225,0.499,0.912,0.856,�k��,5.6,��
2017/11/21,07:50,0.926,1.506,0.954,1.790,1.228,0.500,0.911,0.856,�k�k��,6.7,��
2017/11/21,08:00,0.929,1.505,0.955,1.789,1.225,0.501,0.910,0.858,�k�k��,7.9,��
2017/11/21,08:10,0.927,1.503,0.956,1.791,1.224,0.499,0.908,0.858,�k�k��,9.7,��
2017/11/21,08:20,0.926,1.505,0.954,1.791,1.228,0.502,0.907,0.857,�k�k��,9.1,��
2017/11/21,08:30,0.928,1.506,0.955,1.790,1.226,0.501,0.908,0.856,�k�k��,8.0,��
2017/11/21,08:40,0.929,1.507,0.954,1.785,1.226,0.502,0.909,0.857,�k�k��,7.1,��
2017/11/21,08:50,0.929,1.505,0.955,1.789,1.226,0.499,0.905,0.856,�k��,5.9,��
2017/11/21,09:00,0.928,1.504,0.956,1.790,1.232,0.501,0.905,0.857,�k�k��,8.2,��
2017/11/21,09:10,0.928,1.501,0.955,1.789,1.228,0.499,0.904,0.857,�k�k��,7.1,��
2017/11/21,09:20,0.929,1.503,0.954,1.792,1.226,0.500,0.900,0.856,�k�k��,6.9,��
2017/11/21,09:30,0.928,1.505,0.956,1.791,1.226,0.501,0.899,0.855,�k�k��,6.1,��
2017/11/21,09:40,0.932,1.504,0.955,1.791,1.230,0.501,0.899,0.855,�k�k��,6.7,��
2017/11/21,09:50,0.929,1.505,0.955,1.791,1.229,0.501,0.895,0.858,�k�k��,6.2,��
2017/11/21,10:00,0.931,1.504,0.956,1.794,1.229,0.499,0.897,0.856,�k�k��,6.0,��
2017/11/21,10:10,0.930,1.503,0.955,1.794,1.228,0.501,0.903,0.856,�k�k��,6.2,��
2017/11/21,10:20,0.931,1.505,0.956,1.794,1.230,0.500,0.903,0.858,�k�k��,7.6,��
2017/11/21,10:30,0.930,1.501,0.958,1.790,1.227,0.501,0.901,0.856,�k��,6.4,��
2017/11/21,10:40,0.932,1.502,0.957,1.791,1.230,0.501,0.900,0.855,�k�k��,7.7,��
2017/11/21,10:50,0.932,1.510,0.956,1.795,1.229,0.500,0.900,0.856,�k�k��,7.9,��
2017/11/21,11:00,0.929,1.502,0.957,1.792,1.230,0.500,0.901,0.858,�k��,7.2,��
2017/11/21,11:10,0.930,1.503,0.958,1.794,1.230,0.501,0.901,0.855,�k��,8.2,��
2017/11/21,11:20,0.933,1.505,0.957,1.795,1.229,0.500,0.901,0.857,�k�k��,7.5,��
2017/11/21,11:30,0.932,1.505,0.957,1.796,1.228,0.501,0.902,0.857,�k�k��,7.5,��
2017/11/21,11:40,0.931,1.506,0.958,1.791,1.228,0.501,0.901,0.857,�k��,8.4,��
2017/11/21,11:50,0.931,1.504,0.957,1.791,1.226,0.501,0.901,0.857,�k��,5.9,��
2017/11/21,12:00,0.933,1.507,0.956,1.794,1.230,0.499,0.904,0.856,�k��,8.5,��
2017/11/21,12:10,0.935,1.509,0.957,1.793,1.228,0.501,0.903,0.857,�k��,10.3,��
2017/11/21,12:20,0.931,1.509,0.955,1.794,1.227,0.502,0.902,0.858,�k��,10.6,��
2017/11/21,12:30,0.932,1.508,0.956,1.794,1.230,0.500,0.901,0.858,���k��,12.2,��
2017/11/21,12:40,0.932,1.503,0.956,1.792,1.231,0.502,0.902,0.860,���k��,12.7,��
2017/11/21,12:50,0.929,1.506,0.957,1.794,1.228,0.501,0.902,0.858,���k��,11.3,��
2017/11/21,13:00,0.931,1.506,0.959,1.796,1.229,0.500,0.905,0.858,�k��,9.1,��
2017/11/21,13:10,0.931,1.501,0.956,1.794,1.227,0.501,0.906,0.855,�k��,11.3,��
2017/11/21,13:20,0.930,1.506,0.959,1.797,1.230,0.503,0.905,0.856,�k��,9.5,��
2017/11/21,13:30,0.933,1.504,0.960,1.797,1.231,0.501,0.906,0.855,�k��,11.7,��
2017/11/21,13:40,0.932,1.501,0.958,1.795,1.230,0.502,0.905,0.854,�k��,8.1,��
2017/11/21,13:50,0.932,1.501,0.958,1.794,1.233,0.501,0.909,0.854,�k��,8.2,��
2017/11/21,14:00,0.929,1.505,0.959,1.796,1.232,0.501,0.906,0.854,���k��,6.4,��
2017/11/21,14:10,0.932,1.505,0.958,1.795,1.233,0.501,0.906,0.854,���k��,7.3,��
2017/11/21,14:20,0.934,1.502,0.957,1.796,1.233,0.500,0.907,0.854,�k��,8.2,��
2017/11/21,14:30,0.931,1.503,0.957,1.798,1.232,0.501,0.907,0.855,���k��,7.5,��
2017/11/21,14:40,0.930,1.505,0.959,1.795,1.232,0.501,0.907,0.858,���k��,6.5,��
2017/11/21,14:50,0.929,1.503,0.959,1.797,1.233,0.500,0.907,0.857,���k��,9.9,��
2017/11/21,15:00,0.931,1.506,0.957,1.796,1.233,0.500,0.907,0.856,���k��,7.2,��
2017/11/21,15:10,0.933,1.509,0.960,1.794,1.233,0.501,0.904,0.858,�k��,7.7,��
2017/11/21,15:20,0.931,1.505,0.959,1.793,1.233,0.502,0.905,0.856,�k��,7.2,��
2017/11/21,15:30,0.932,1.507,0.959,1.795,1.231,0.501,0.907,0.856,�k��,5.9,��
2017/11/21,15:40,0.931,1.505,0.958,1.797,1.231,0.502,0.905,0.856,�k��,5.6,��
2017/11/21,15:50,0.930,1.506,0.960,1.794,1.230,0.501,0.906,0.856,���k��,5.2,��
2017/11/21,16:00,0.930,1.508,0.956,1.794,1.231,0.500,0.907,0.857,�k��,5.1,��
2017/11/21,16:10,0.927,1.509,0.954,1.794,1.230,0.501,0.907,0.856,�k��,4.5,��
2017/11/21,16:20,0.927,1.509,0.957,1.794,1.229,0.500,0.904,0.856,�k��,4.3,��
2017/11/21,16:30,0.930,1.507,0.957,1.792,1.231,0.500,0.905,0.856,�k��,4.6,��
2017/11/21,16:40,0.926,1.506,0.956,1.794,1.226,0.501,0.905,0.856,�k��,3.7,��
2017/11/21,16:50,0.926,1.509,0.957,1.794,1.229,0.501,0.905,0.858,�k��,3.4,��
2017/11/21,17:00,0.926,1.509,0.956,1.793,1.229,0.502,0.906,0.856,�k��,3.2,��
2017/11/21,17:10,0.926,1.507,0.958,1.792,1.230,0.500,0.906,0.856,�k��,3.0,��
2017/11/21,17:20,0.928,1.510,0.957,1.794,1.231,0.500,0.904,0.855,�k��,3.2,��
2017/11/21,17:30,0.926,1.509,0.956,1.790,1.232,0.500,0.904,0.855,�k��,3.0,��
2017/11/21,17:40,0.929,1.510,0.956,1.792,1.231,0.499,0.905,0.855,���k��,2.5,��
2017/11/21,17:50,0.926,1.507,0.957,1.793,1.229,0.499,0.903,0.854,���k��,3.4,��
2017/11/21,18:00,0.927,1.510,0.956,1.790,1.229,0.500,0.903,0.856,�k��,3.1,��
2017/11/21,18:10,0.927,1.508,0.953,1.793,1.230,0.500,0.903,0.856,�k��,2.3,��
2017/11/21,18:20,0.927,1.508,0.957,1.793,1.229,0.500,0.903,0.853,�k��,3.1,��
2017/11/21,18:30,0.925,1.508,0.955,1.791,1.229,0.500,0.903,0.855,��,2.5,��
2017/11/21,18:40,0.923,1.508,0.953,1.790,1.230,0.500,0.900,0.855,���쐼,3.0,��
2017/11/21,18:50,0.929,1.507,0.955,1.791,1.229,0.499,0.902,0.855,���쐼,2.6,��
2017/11/21,19:00,0.927,1.505,0.955,1.793,1.227,0.499,0.905,0.856,��,2.9,��
2017/11/21,19:10,0.928,1.508,0.956,1.789,1.232,0.498,0.901,0.855,���쐼,3.3,��
2017/11/21,19:20,0.928,1.506,0.956,1.790,1.226,0.498,0.903,0.856,���쐼,3.8,��
2017/11/21,19:30,0.925,1.505,0.955,1.792,1.227,0.499,0.904,0.854,��,4.5,��
2017/11/21,19:40,0.928,1.505,0.956,1.789,1.229,0.500,0.902,0.852,���쐼,4.8,��
2017/11/21,19:50,0.927,1.506,0.956,1.789,1.230,0.497,0.902,0.855,���쐼,4.3,��
2017/11/21,20:00,0.930,1.507,0.955,1.790,1.228,0.498,0.903,0.854,���쐼,4.5,��
2017/11/21,20:10,0.929,1.506,0.955,1.791,1.229,0.499,0.904,0.854,���쐼,4.9,��
2017/11/21,20:20,0.926,1.506,0.954,1.789,1.228,0.498,0.902,0.855,���쐼,3.9,��
2017/11/21,20:30,0.927,1.505,0.954,1.791,1.230,0.499,0.902,0.852,���쐼,4.3,��
2017/11/21,20:40,0.927,1.507,0.955,1.790,1.229,0.500,0.904,0.855,��,3.5,��
2017/11/21,20:50,0.926,1.508,0.954,1.790,1.227,0.499,0.902,0.853,��,4.0,��
2017/11/21,21:00,0.928,1.508,0.954,1.788,1.230,0.500,0.903,0.854,���k��,4.0,��
2017/11/21,21:10,0.926,1.510,0.954,1.789,1.226,0.498,0.903,0.854,�k��,3.2,��
2017/11/21,21:20,0.928,1.509,0.955,1.789,1.228,0.500,0.902,0.855,�k��,2.6,��
2017/11/21,21:30,0.927,1.506,0.954,1.789,1.231,0.499,0.901,0.854,���k��,2.0,��
2017/11/21,21:40,0.926,1.506,0.954,1.789,1.229,0.501,0.901,0.854,��,1.5,��
2017/11/21,21:50,0.927,1.506,0.954,1.789,1.228,0.498,0.900,0.853,���쐼,2.0,��
2017/11/21,22:00,0.927,1.507,0.954,1.787,1.229,0.499,0.903,0.854,��,3.2,��
2017/11/21,22:10,0.925,1.508,0.955,1.790,1.228,0.497,0.902,0.856,��,3.0,��
2017/11/21,22:20,0.929,1.506,0.952,1.788,1.230,0.498,0.902,0.854,��,2.6,��
2017/11/21,22:30,0.927,1.505,0.953,1.791,1.227,0.498,0.902,0.854,��,1.9,��
2017/11/21,22:40,0.926,1.506,0.955,1.786,1.228,0.497,0.902,0.855,��,2.0,��
2017/11/21,22:50,0.927,1.504,0.956,1.788,1.229,0.498,0.902,0.854,���쐼,2.3,��
2017/11/21,23:00,0.927,1.505,0.952,1.789,1.226,0.497,0.900,0.855,��,2.6,��
2017/11/21,23:10,0.928,1.505,0.954,1.790,1.229,0.499,0.902,0.855,���쐼,3.2,��
2017/11/21,23:20,0.925,1.506,0.955,1.789,1.227,0.499,0.902,0.855,��,2.8,��
2017/11/21,23:30,0.925,1.507,0.953,1.787,1.227,0.500,0.901,0.852,��,3.1,��
2017/11/21,23:40,0.926,1.506,0.954,1.788,1.224,0.498,0.902,0.854,��,2.8,��
2017/11/21,23:50,0.926,1.503,0.951,1.788,1.226,0.499,0.901,0.854,���쐼,2.9,��
